DW6610 Weather Reports


time (UTC)temp
F
wind
direction
speed
knots
gust
knots
rain 1hr
in
rain 24hr
in
rain mn
in
humidity
%
barometer
mb
20260905025552 86 96 0.0 0.9 0.00 0.00 0.00 71 1014.8
20260905025051 86 0 0.0 0.9 0.00 0.00 0.00 71 1014.7
20260905024601 86 0 0.0 0.9 0.00 0.00 0.00 71 1014.6
20260905024051 86 0 0.0 0.9 0.00 0.00 0.00 70 1014.6
20260905023551 87 0 0.0 0.9 0.00 0.00 0.00 69 1014.5
20260905023102 87 92 0.0 0.9 0.00 0.00 0.00 69 1014.5
20260905022552 87 0 0.0 1.7 0.00 0.00 0.00 68 1014.6
20260905022054 87 0 0.0 1.7 0.00 0.00 0.00 68 1014.5
20260905021600 87 0 0.0 0.9 0.00 0.00 0.00 68 1014.6
20260905021054 88 88 0.0 2.6 0.00 0.00 0.00 68 1014.5
20260905020554 88 0 0.0 2.6 0.00 0.00 0.00 67 1014.4
20260905020100 87 52 0.0 2.6 0.00 0.00 0.00 68 1014.4
20260905015552 87 0 0.0 2.6 0.00 0.00 0.00 69 1014.4
20260905015052 86 236 0.0 0.9 0.00 0.00 0.00 70 1014.4
20260905014602 86 76 0.0 0.9 0.00 0.00 0.00 70 1014.3
20260905014051 86 0 0.0 0.9 0.00 0.00 0.00 71 1014.2
20260905013552 87 0 0.0 0.9 0.00 0.00 0.00 71 1014.0
20260905013100 87 0 0.0 0.0 0.00 0.00 0.00 72 1014.2
20260905012551 87 0 0.0 0.0 0.00 0.00 0.00 71 1014.2
20260905012051 87 0 0.0 0.0 0.00 0.00 0.00 71 1014.2
20260905011617 88 0 0.0 0.0 0.00 0.00 0.00 70 1014.1
20260905011050 88 0 0.0 0.0 0.00 0.00 0.00 69 1014.1
20260905010552 89 0 0.0 0.9 0.00 0.00 0.00 68 1014.1
20260905010100 90 0 0.0 0.9 0.00 0.00 0.00 66 1014.0
20260905005551 90 0 0.0 0.9 0.00 0.00 0.00 64 1014.0
20260905005051 91 0 0.0 0.9 0.00 0.00 0.00 61 1013.9
20260905004600 91 0 0.0 0.0 0.00 0.00 0.00 59 1014.0
20260905004051 92 0 0.0 0.9 0.00 0.00 0.00 57 1014.0
20260905003551 93 0 0.0 0.9 0.00 0.00 0.00 56 1013.9
20260905003104 93 0 0.0 0.9 0.00 0.00 0.00 55 1013.8
20260905002551 94 0 0.0 1.7 0.00 0.00 0.00 54 1013.8
20260905002052 94 62 0.0 1.7 0.00 0.00 0.00 54 1013.8
20260905001608 95 88 0.0 0.9 0.00 0.00 0.00 52 1013.6
20260905001051 95 0 0.0 0.9 0.00 0.00 0.00 52 1013.6
20260905000552 96 0 0.0 0.9 0.00 0.00 0.00 51 1013.6
20260904235551 97 89 0.0 1.7 0.00 0.00 0.00 50 1013.5
20260904235051 97 0 0.0 1.7 0.00 0.00 0.00 48 1013.3
20260904234601 98 0 0.0 1.7 0.00 0.00 0.00 47 1013.3
20260904234051 98 86 0.9 2.6 0.00 0.00 0.00 46 1013.3
20260904233554 99 272 0.9 2.6 0.00 0.00 0.00 45 1013.2
20260904233110 100 136 0.9 2.6 0.00 0.00 0.00 44 1013.1
20260904232551 101 0 0.9 2.6 0.00 0.00 0.00 43 1013.1
20260904232052 102 70 0.0 1.7 0.00 0.00 0.00 42 1013.1
20260904231602 102 92 0.9 1.7 0.00 0.00 0.00 42 1013.0
20260904231051 102 84 0.0 2.6 0.00 0.00 0.00 42 1013.0
20260904230551 102 86 0.9 3.5 0.00 0.00 0.00 42 1013.1
20260904230100 102 90 0.9 3.5 0.00 0.00 0.00 42 1013.2
20260904225551 102 20 0.9 3.5 0.00 0.00 0.00 42 1013.3
20260904225051 103 80 0.9 4.3 0.00 0.00 0.00 41 1013.2
20260904224602 103 20 0.9 4.3 0.00 0.00 0.00 42 1013.1
20260904224051 103 117 0.9 3.5 0.00 0.00 0.00 40 1013.2
20260904223552 103 91 0.9 3.5 0.00 0.00 0.00 41 1013.2
20260904223101 103 29 0.0 2.6 0.00 0.00 0.00 43 1013.3
20260904222552 102 117 0.9 3.5 0.00 0.00 0.00 44 1013.2
20260904222051 103 53 0.9 3.5 0.00 0.00 0.00 42 1013.2
20260904221605 103 122 0.9 3.5 0.00 0.00 0.00 45 1013.2
20260904221052 103 139 0.9 2.6 0.00 0.00 0.00 42 1013.2
20260904220551 104 91 0.9 2.6 0.00 0.00 0.00 43 1013.3
20260904220110 104 94 0.9 2.6 0.00 0.00 0.00 42 1013.2
20260904215550 103 88 0.9 2.6 0.00 0.00 0.00 43 1013.1
20260904215051 104 82 0.9 2.6 0.00 0.00 0.00 41 1013.2
20260904214559 103 35 0.9 2.6 0.00 0.00 0.00 41 1013.2
20260904214054 104 0 0.9 2.6 0.00 0.00 0.00 44 1013.2
20260904213551 103 0 1.7 3.5 0.00 0.00 0.00 45 1013.3
20260904213104 103 79 1.7 3.5 0.00 0.00 0.00 44 1013.5
20260904212555 103 111 0.9 2.6 0.00 0.00 0.00 45 1013.5
20260904212051 103 155 0.9 2.6 0.00 0.00 0.00 43 1013.5
20260904211559 103 0 0.9 3.5 0.00 0.00 0.00 45 1013.6
20260904211052 102 118 0.9 3.5 0.00 0.00 0.00 46 1013.7
20260904210551 101 258 0.0 3.5 0.00 0.00 0.00 45 1013.7
20260904210100 102 145 0.9 3.5 0.00 0.00 0.00 42 1013.9
20260904205555 102 113 0.9 3.5 0.00 0.00 0.00 46 1013.9
20260904205051 102 261 1.7 4.3 0.00 0.00 0.00 45 1014.0
20260904204603 103 132 1.7 4.3 0.00 0.00 0.00 43 1014.0
20260904204051 104 143 0.9 4.3 0.00 0.00 0.00 43 1014.0
20260904203551 104 95 0.0 3.5 0.00 0.00 0.00 47 1014.1
20260904203100 103 121 0.9 3.5 0.00 0.00 0.00 42 1014.2
20260904202551 103 161 0.9 2.6 0.00 0.00 0.00 44 1014.2
20260904202051 104 115 0.9 2.6 0.00 0.00 0.00 44 1014.3
20260904201623 104 71 0.0 3.5 0.00 0.00 0.00 44 1014.4
20260904201051 104 81 0.9 3.5 0.00 0.00 0.00 42 1014.5
20260904200551 103 82 0.9 3.5 0.00 0.00 0.00 43 1014.5
20260904200104 103 87 1.7 3.5 0.00 0.00 0.00 47 1014.8
20260904195552 102 46 0.9 2.6 0.00 0.00 0.00 44 1014.8
20260904195054 102 108 0.9 2.6 0.00 0.00 0.00 49 1015.0
20260904194601 101 149 0.9 3.5 0.00 0.00 0.00 47 1015.0
20260904194051 100 0 0.9 3.5 0.00 0.00 0.00 48 1015.1
20260904193551 100 179 0.9 3.5 0.00 0.00 0.00 48 1015.3
20260904193107 99 169 0.9 2.6 0.00 0.00 0.00 48 1015.5
20260904192551 99 162 0.0 5.2 0.00 0.00 0.00 51 1015.4
20260904192052 99 0 0.9 5.2 0.00 0.00 0.00 49 1015.5
20260904191557 102 79 1.7 3.5 0.00 0.00 0.00 47 1015.6
20260904191052 102 83 0.0 4.3 0.00 0.00 0.00 49 1015.6
20260904190552 102 94 0.9 4.3 0.00 0.00 0.00 49 1015.6
20260904190105 102 71 1.7 5.2 0.00 0.00 0.00 47 1015.7
20260904185551 102 91 1.7 6.1 0.00 0.00 0.00 49 1015.7
20260904185053 102 80 1.7 6.1 0.00 0.00 0.00 52 1015.7
20260904184559 102 83 0.9 4.3 0.00 0.00 0.00 49 1015.8
20260904184051 102 88 0.9 4.3 0.00 0.00 0.00 53 1015.8
20260904183550 102 146 1.7 4.3 0.00 0.00 0.00 51 1016.0
20260904183115 102 85 0.9 2.6 0.00 0.00 0.00 60 1016.0
20260904182551 101 162 0.9 2.6 0.00 0.00 0.00 52 1016.0
20260904182051 101 159 0.9 3.5 0.00 0.00 0.00 51 1016.1
20260904181600 101 126 0.9 3.5 0.00 0.00 0.00 56 1016.2
20260904181051 101 92 0.9 3.5 0.00 0.00 0.00 54 1016.2
20260904180551 101 147 0.9 3.5 0.00 0.00 0.00 51 1016.3
20260904180112 102 145 1.7 3.5 0.00 0.00 0.00 49 1016.5
20260904175552 102 96 0.0 2.6 0.00 0.00 0.00 55 1016.5
20260904175051 100 115 0.9 2.6 0.00 0.00 0.00 54 1016.5
20260904174610 100 165 0.0 3.5 0.00 0.00 0.00 52 1016.6
20260904174051 100 110 0.9 3.5 0.00 0.00 0.00 55 1016.6
20260904173551 100 121 1.7 4.3 0.00 0.00 0.00 55 1016.7
20260904173118 100 97 0.9 4.3 0.00 0.00 0.00 55 1016.6
20260904172554 100 107 0.9 3.5 0.00 0.00 0.00 54 1016.8
20260904172052 99 97 0.9 2.6 0.00 0.00 0.00 57 1016.9
20260904171606 98 0 0.9 4.3 0.00 0.00 0.00 55 1017.0
20260904171051 98 146 0.9 4.3 0.00 0.00 0.00 55 1017.1
20260904170554 98 98 1.7 3.5 0.00 0.00 0.00 55 1017.0
20260904170108 99 129 0.9 2.6 0.00 0.00 0.00 58 1017.1
20260904165553 98 75 0.9 3.5 0.00 0.00 0.00 56 1017.1
20260904165051 98 156 0.9 3.5 0.00 0.00 0.00 57 1017.1
20260904164604 99 162 0.9 3.5 0.00 0.00 0.00 56 1017.2
20260904164052 99 84 0.9 3.5 0.00 0.00 0.00 56 1017.2
20260904163551 99 74 0.0 3.5 0.00 0.00 0.00 59 1017.3
20260904163110 98 86 0.0 5.2 0.00 0.00 0.00 56 1017.2
20260904162552 98 79 0.9 5.2 0.00 0.00 0.00 59 1017.2
20260904162051 98 104 0.0 1.7 0.00 0.00 0.00 60 1017.3
20260904161616 98 53 0.0 4.3 0.00 0.00 0.00 60 1017.3
20260904161051 97 90 1.7 4.3 0.00 0.00 0.00 63 1017.3
20260904160551 97 178 0.9 2.6 0.00 0.00 0.00 61 1017.4
20260904160105 97 118 0.9 4.3 0.00 0.00 0.00 59 1017.4
20260904155551 96 102 1.7 4.3 0.00 0.00 0.00 58 1017.4
20260904155051 97 0 0.0 3.5 0.00 0.00 0.00 64 1017.4
20260904154603 96 124 0.9 3.5 0.00 0.00 0.00 60 1017.5
20260904154051 96 90 0.0 3.5 0.00 0.00 0.00 62 1017.4
20260904153551 95 116 0.9 3.5 0.00 0.00 0.00 63 1017.4
20260904153108 95 0 0.0 3.5 0.00 0.00 0.00 66 1017.4
20260904152551 95 138 1.7 3.5 0.00 0.00 0.00 66 1017.3
20260904152051 95 105 0.9 2.6 0.00 0.00 0.00 65 1017.3
20260904151602 95 84 0.9 1.7 0.00 0.00 0.00 67 1017.3
20260904151051 95 94 0.0 2.6 0.00 0.00 0.00 66 1017.2
20260904150551 94 137 0.9 3.5 0.00 0.00 0.00 68 1017.2
20260904150106 94 113 0.9 3.5 0.00 0.00 0.00 67 1017.2
20260904145553 94 0 0.9 3.5 0.00 0.00 0.00 66 1017.2
20260904145052 94 107 0.0 1.7 0.00 0.00 0.00 66 1017.1
20260904144621 93 98 0.0 2.6 0.00 0.00 0.00 70 1017.1
20260904144051 93 72 0.0 2.6 0.00 0.00 0.00 68 1017.2
20260904143552 93 0 0.9 2.6 0.00 0.00 0.00 68 1017.2
20260904143102 93 69 0.0 2.6 0.00 0.00 0.00 68 1017.2
20260904142552 93 59 0.0 1.7 0.00 0.00 0.00 67 1017.1
20260904142051 92 0 0.0 1.7 0.00 0.00 0.00 71 1017.1
20260904141604 91 141 0.0 1.7 0.00 0.00 0.00 72 1017.1
20260904141052 91 125 0.0 0.9 0.00 0.00 0.00 73 1017.1
20260904140552 91 114 0.0 0.9 0.00 0.00 0.00 72 1017.1
20260904140103 90 106 0.0 0.9 0.00 0.00 0.00 74 1017.3
20260904135552 89 77 0.0 0.9 0.00 0.00 0.00 76 1017.1
20260904135052 89 0 0.0 0.9 0.00 0.00 0.00 75 1017.1
20260904134608 89 82 0.0 0.9 0.00 0.00 0.00 75 1017.0
20260904134051 88 0 0.0 0.9 0.00 0.00 0.00 77 1017.0
20260904133551 87 72 0.0 0.9 0.00 0.00 0.00 78 1017.0
20260904133105 86 0 0.0 0.9 0.00 0.00 0.00 81 1017.0
20260904132552 85 0 0.0 0.9 0.00 0.00 0.00 82 1017.0
20260904132052 84 0 0.0 1.7 0.00 0.00 0.00 84 1016.9
20260904131605 82 0 0.0 1.7 0.00 0.00 0.00 86 1016.8
20260904131051 81 71 0.0 1.7 0.00 0.00 0.00 87 1016.9
20260904130551 80 70 0.0 1.7 0.00 0.00 0.00 89 1017.0
20260904125552 78 78 0.0 0.9 0.00 0.00 0.00 91 1016.9
20260904125052 77 0 0.0 0.9 0.00 0.00 0.00 93 1016.9
20260904124606 77 0 0.0 0.9 0.00 0.00 0.00 93 1016.9
20260904124057 76 77 0.0 0.9 0.00 0.00 0.00 94 1016.8
20260904123551 76 0 0.0 0.9 0.00 0.00 0.00 94 1016.8
20260904123102 75 0 0.0 0.9 0.00 0.00 0.00 95 1016.7
20260904122551 75 77 0.0 0.9 0.00 0.00 0.00 96 1016.7
20260904122050 75 0 0.0 0.9 0.00 0.00 0.00 96 1016.7
20260904121603 74 77 0.0 0.9 0.00 0.00 0.00 96 1016.6
20260904121056 74 0 0.0 0.0 0.00 0.00 0.00 96 1016.5
20260904120553 74 0 0.0 0.0 0.00 0.00 0.00 96 1016.4
20260904120118 74 0 0.0 0.9 0.00 0.00 0.00 96 1016.4
20260904115552 74 0 0.0 0.9 0.00 0.00 0.00 96 1016.3
20260904115052 74 0 0.0 0.9 0.00 0.00 0.00 96 1016.3
20260904114603 74 0 0.0 0.9 0.00 0.00 0.00 96 1016.3
20260904114052 74 0 0.0 0.9 0.00 0.00 0.00 96 1016.3
20260904113552 74 0 0.0 0.9 0.00 0.00 0.00 96 1016.1
20260904113107 74 0 0.0 0.9 0.00 0.00 0.00 96 1016.1
20260904112556 74 0 0.0 0.9 0.00 0.00 0.00 96 1016.0
20260904112056 74 77 0.0 0.9 0.00 0.00 0.00 97 1016.0
20260904111613 74 0 0.0 0.9 0.00 0.00 0.00 97 1016.0
20260904111052 74 77 0.0 0.9 0.00 0.00 0.00 97 1016.0
20260904110555 74 0 0.0 0.9 0.00 0.00 0.00 97 1016.0
20260904110106 74 0 0.0 0.9 0.00 0.00 0.00 97 1015.9
20260904105552 74 0 0.0 0.9 0.00 0.00 0.00 97 1015.9
20260904105052 74 0 0.0 0.9 0.00 0.00 0.00 97 1015.8
20260904104619 74 0 0.0 0.9 0.00 0.00 0.00 97 1015.9
20260904104051 74 0 0.0 0.9 0.00 0.00 0.00 97 1015.9
20260904103552 75 0 0.0 0.9 0.00 0.00 0.00 97 1015.8
20260904103106 75 0 0.0 0.9 0.00 0.00 0.00 97 1015.8
20260904102551 75 0 0.0 0.0 0.00 0.00 0.00 97 1015.8
20260904102051 75 0 0.0 0.0 0.00 0.00 0.00 97 1015.8
20260904101605 75 0 0.0 0.0 0.00 0.00 0.00 97 1015.8
20260904101051 75 0 0.0 0.0 0.00 0.00 0.00 96 1015.8
20260904100552 75 0 0.0 0.0 0.00 0.00 0.00 97 1015.8
20260904095552 75 0 0.0 0.0 0.00 0.00 0.00 97 1015.6
20260904095051 75 0 0.0 0.0 0.00 0.00 0.00 97 1015.7
20260904094613 75 0 0.0 0.0 0.00 0.00 0.00 96 1015.7
20260904094051 75 0 0.0 0.0 0.00 0.00 0.00 96 1015.6
20260904093554 75 0 0.0 0.0 0.00 0.00 0.00 96 1015.5
20260904093106 75 0 0.0 0.0 0.00 0.00 0.00 96 1015.6
20260904092551 75 0 0.0 0.0 0.00 0.00 0.00 96 1015.5
20260904092051 75 0 0.0 0.0 0.00 0.00 0.00 96 1015.5
20260904091604 75 0 0.0 0.0 0.00 0.00 0.00 96 1015.5
20260904091051 75 0 0.0 0.0 0.00 0.00 0.00 96 1015.5
20260904090553 75 0 0.0 0.0 0.00 0.00 0.00 96 1015.5
20260904090104 76 0 0.0 0.0 0.00 0.00 0.00 96 1015.5
20260904085551 76 0 0.0 0.0 0.00 0.00 0.00 96 1015.4
20260904085052 76 0 0.0 0.9 0.00 0.00 0.00 95 1015.3
20260904084603 76 0 0.0 0.9 0.00 0.00 0.00 95 1015.4
20260904084051 76 0 0.0 0.9 0.00 0.00 0.00 95 1015.4
20260904083553 76 0 0.0 0.0 0.00 0.00 0.00 95 1015.3
20260904083103 76 0 0.0 0.0 0.00 0.00 0.00 94 1015.2
20260904082552 76 0 0.0 0.9 0.00 0.00 0.00 94 1015.2
20260904082051 76 0 0.0 0.9 0.00 0.00 0.00 94 1015.2
20260904081642 76 0 0.0 0.0 0.00 0.00 0.00 94 1015.2
20260904081051 76 0 0.0 0.0 0.00 0.00 0.00 94 1015.1
20260904080551 76 0 0.0 0.0 0.00 0.00 0.00 94 1015.1
20260904080105 76 0 0.0 0.0 0.00 0.00 0.00 94 1015.2
20260904075553 76 0 0.0 0.0 0.00 0.00 0.00 94 1015.2
20260904075052 76 0 0.0 0.0 0.00 0.00 0.00 94 1015.1
20260904074617 77 0 0.0 0.9 0.00 0.00 0.00 94 1015.1
20260904074052 77 0 0.0 0.9 0.00 0.00 0.00 94 1015.1
20260904073552 77 0 0.0 0.9 0.00 0.00 0.00 94 1015.1
20260904073109 77 0 0.0 0.0 0.00 0.00 0.00 95 1015.2
20260904072552 77 0 0.0 0.0 0.00 0.00 0.00 94 1015.3
20260904072051 77 0 0.0 0.0 0.00 0.00 0.00 95 1015.3
20260904071601 77 0 0.0 0.0 0.00 0.00 0.00 95 1015.3
20260904071051 77 0 0.0 0.9 0.00 0.00 0.00 94 1015.2
20260904070552 77 0 0.0 0.9 0.00 0.00 0.00 94 1015.2
20260904070119 77 77 0.0 0.9 0.00 0.00 0.00 94 1015.2
20260904065551 77 77 0.0 1.7 0.00 0.00 0.00 94 1015.2
20260904065052 77 0 0.0 1.7 0.00 0.00 0.00 94 1015.3
20260904064603 77 0 0.0 0.9 0.00 0.00 0.00 94 1015.3
20260904064051 77 0 0.0 0.0 0.00 0.00 0.00 93 1015.2
20260904063551 78 0 0.0 0.0 0.00 0.00 0.00 93 1015.2
20260904063103 78 0 0.0 0.0 0.00 0.00 0.00 93 1015.2
20260904062552 78 0 0.0 0.9 0.00 0.00 0.00 92 1015.3
20260904062051 78 0 0.0 0.9 0.00 0.00 0.00 92 1015.2
20260904061606 78 0 0.0 0.0 0.00 0.00 0.00 93 1015.3
20260904061051 78 0 0.0 0.0 0.00 0.00 0.00 92 1015.3
20260904060552 78 0 0.0 0.0 0.00 0.00 0.00 92 1015.1
20260904060106 78 0 0.0 0.0 0.00 0.00 0.00 91 1015.1
20260904055551 79 0 0.0 0.0 0.00 0.00 0.00 91 1015.1
20260904055051 79 0 0.0 0.0 0.00 0.00 0.00 91 1015.2
20260904054608 79 0 0.0 0.0 0.00 0.00 0.00 90 1015.3
20260904054051 79 0 0.0 0.0 0.00 0.00 0.00 90 1015.4
20260904053551 79 0 0.0 0.0 0.00 0.00 0.00 90 1015.3
20260904053059 79 0 0.0 0.9 0.00 0.00 0.00 89 1015.2
20260904052552 80 0 0.0 0.9 0.00 0.00 0.00 88 1015.2
20260904052052 79 0 0.0 0.9 0.00 0.00 0.00 88 1015.2
20260904051607 79 0 0.0 0.0 0.00 0.00 0.00 88 1015.2
20260904051052 80 0 0.0 0.0 0.00 0.00 0.00 88 1015.2
20260904050553 80 0 0.0 0.0 0.00 0.00 0.00 88 1015.3
20260904050107 80 0 0.0 0.0 0.00 0.00 0.00 87 1015.3
20260904045551 80 0 0.0 0.0 0.00 0.00 0.00 88 1015.2
20260904045051 80 0 0.0 0.0 0.00 0.00 0.00 88 1015.3
20260904044602 80 0 0.0 0.0 0.00 0.00 0.00 88 1015.3
20260904044052 81 0 0.0 0.9 0.00 0.00 0.00 86 1015.4
20260904043551 81 0 0.0 0.9 0.00 0.00 0.00 86 1015.4
20260904043119 81 0 0.0 0.0 0.00 0.00 0.00 86 1015.3
20260904042552 81 0 0.0 0.0 0.00 0.00 0.00 85 1015.3
20260904042053 81 0 0.0 0.0 0.00 0.00 0.00 84 1015.4
20260904041606 81 0 0.0 0.0 0.00 0.00 0.00 82 1015.4
20260904041051 81 0 0.0 0.0 0.00 0.00 0.00 82 1015.4
20260904040551 81 0 0.0 0.0 0.00 0.00 0.00 82 1015.3
20260904040107 82 0 0.0 0.0 0.00 0.00 0.00 82 1015.4
20260904035551 82 0 0.0 0.0 0.00 0.00 0.00 81 1015.5
20260904035051 82 0 0.0 0.0 0.00 0.00 0.00 81 1015.5
20260904034605 82 0 0.0 0.0 0.00 0.00 0.00 80 1015.4
20260904034051 83 0 0.0 0.9 0.00 0.00 0.00 80 1015.5
20260904033552 83 0 0.0 2.6 0.00 0.00 0.00 79 1015.5
20260904033103 83 0 0.0 2.6 0.00 0.00 0.00 79 1015.5
20260904032550 83 56 0.0 2.6 0.00 0.00 0.00 79 1015.5
20260904032050 84 0 0.0 1.7 0.00 0.00 0.00 79 1015.5
20260904031603 83 0 0.0 2.6 0.00 0.00 0.00 79 1015.6
20260904031051 83 0 0.0 2.6 0.00 0.00 0.00 79 1015.5
20260904030551 83 0 0.9 4.3 0.00 0.00 0.00 79 1015.6